BEIDOU-3 G1 (C59)

Last updated on Oct. 29, 2020, 5:53 a.m. UTC

1 43683U 18085A   20302.81161597 -.00000281  00000-0  00000+0 0  9992
2 43683   1.4868 248.4409 0004511 352.4516 228.9420  1.00274719  7433
UTC
Height (km)
Latitude
Longitude
Inclination
Orbital Period
UTC large
Height (km)
Speed (km/s)
/
Latitude / Longitude
Inclination (degrees)
Orbital Period (minutes)
Azimuth
Elevation
Range (km)
Doppler Factor
iOS Compass Heading
iOS Angle

Next 30 passes for location: Hong Kong

Rise time Rise Azimuth (degrees) Set time Set Azimuth (degrees) Duration Max altitude (degrees)

No matching passes for this satellites